Location: Borowce
(50.8255°N, 19.6209°E)
Time: 21:55:51
(UTC+00:00)

Okean-O - Pass Details

Date: 19 May 2025
Orbit: 628 x 631 km, 98.0° (Epoch: 16 June)

Event Time Altitude Azimuth Distance (km) Brightness Sun altitude
Exits shadow 20:03:38 - 194° (SSW) 2,568 5.4 -11.5°
Reaches altitude 10° 20:05:08 10° 202° (SSW) 2,010 4.9 -11.6°
Maximum altitude 20:09:02 31° 265° (W) 1,113 4.2 -12.0°
Drops below altitude 10° 20:12:57 10° 328° (NNW) 2,024 6.7 -12.4°
Sets 20:15:23 0° 339° (NNW) 2,937 7.8 -12.6°
